Weather observations for the past three days for
Grand Rapids, Grand Rapids/Itasca County Airport-Gordon Newstrom Field
Imperial (Metric)
Date Time (cdt) Wind (mph) Vis. (mi.) Weather Sky Cond. Temperature (ºF) Relative Humidity Wind Chill (°F) Heat Index (°F) Pressure Precipitation (in)
Air Dwpt 6 hour altimeter (in) sea level (mb) 1 hr 3 hr 6 hr
Max. Min.
01 14:56 W 13 G 21 10.00 Fair CLR 78.1 54 43% 79 29.94 1013.1
01 13:56 W 13 G 22 10.00 Fair CLR 77 54 45% 78 29.94 1013.2
01 12:56 W 12 G 17 10.00 Fair CLR 77 54 77 62.1 45% 78 29.95 1013.7
01 11:56 W 10 G 18 10.00 Fair CLR 75 55 50% 78 29.96 1013.9
01 10:56 W 12 10.00 Fair CLR 72 57 59% 29.97 1014.6
01 09:56 W 10 10.00 Fair CLR 70 55.9 61% 29.97 1014.6
01 08:56 W 8 10.00 Fair CLR 68 55.9 65% 29.96 1014.4
01 07:56 Vrbl 5 10.00 Fair CLR 64.9 55.9 73% 29.95 1013.8
01 06:56 W 5 10.00 Fair CLR 62.1 55 73 61 78% 29.94 1013.6
01 05:56 W 5 10.00 Fair CLR 62.1 54 75% 29.93 1013.2
01 04:56 W 3 10.00 Fair CLR 64 54 70% 29.92 1012.9
01 03:56 W 3 10.00 Fair CLR 66 54 65% 29.92 1012.7
01 02:56 W 9 10.00 Fair CLR 70 53.1 55% 29.92 1012.7
01 01:56 Vrbl 7 10.00 Fair CLR 73 50 44% 29.92 1012.4
01 00:56 SW 7 10.00 Fair CLR 71.1 52 80.1 66 51% 29.91 1012.4
31 23:56 S 7 10.00 Fair CLR 68 55.9 65% 29.91 1012.3
31 22:56 S 6 10.00 Fair CLR 66.9 57.9 73% 29.91 1012.4
31 21:56 S 6 10.00 Fair CLR 68 59 73% 29.91 1012.4
31 20:56 S 6 9.00 Fair CLR 69.1 59 70% 29.9 1012.2
31 19:56 S 6 10.00 Fair CLR 73.9 59 60% 29.89 1012.0
31 18:56 SW 5 10.00 Fair CLR 80.1 57.9 82 78.1 47% 81 29.88 1011.3
31 17:56 SW 5 10.00 Fair CLR 81 55 41% 81 29.88 1011.3
31 16:56 SW 7 10.00 Fair CLR 81 57.9 45% 81 29.88 1011.3
31 15:56 W 8 10.00 Fair CLR 80.1 59 49% 81 29.89 1011.6
31 14:56 W 6 10.00 Fair CLR 79 57 47% 80 29.88 1011.3
31 13:56 W 13 10.00 Fair CLR 79 57 47% 80 29.9 1011.9
31 12:56 NW 7 10.00 Fair CLR 78.1 57.9 78.1 66.9 50% 79 29.89 1011.5
31 11:56 W 12 10.00 A Few Clouds FEW024 77 64 64% 79 29.88 1011.4
31 10:56 W 7 10.00 Partly Cloudy SCT020 75 66.9 76% 76 29.85 1010.5
31 09:56 W 8 10.00 Overcast OVC010 71.1 68 90% 29.85 1010.6
31 08:56 S 6 4.00 Fog/Mist OVC002 68 66.9 96% 29.83 1009.9
31 07:56 SE 3 0.75 Fog/Mist OVC003 66.9 66 97% 29.83 1009.9
31 06:56 SE 6 2.00 Fog/Mist OVC003 66.9 66 66.9 66 97% 29.81 1009.1
31 05:56 SE 5 6.00 Fog/Mist OVC005 66.9 66 97% 29.8 1008.8
31 04:56 SE 6 10.00 Overcast OVC005 66.9 66 97% 29.78 1008.3
31 03:56 Calm 10.00 Overcast OVC005 66.9 66 97% 29.8 1008.7
31 02:56 SE 7 10.00 Overcast OVC005 66.9 64.9 93% 29.78 1008.2
31 01:56 SE 8 10.00 Overcast OVC005 66 64.9 96% 29.78 1008.4
31 00:56 E 6 10.00 Overcast OVC007 66 64 69.1 66 93% 29.81 1009.4
30 23:56 E 6 10.00 Overcast OVC007 66 64 93% 29.84 1010.5
30 22:56 Vrbl 6 10.00 Overcast OVC009 66 63 90% 29.86 1011.1
30 21:56 SE 7 10.00 Overcast OVC011 66 63 90% 29.87 1011.4
30 20:56 Vrbl 6 10.00 Overcast OVC013 66.9 62.1 84% 29.87 1011.5
30 19:56 SE 9 G 16 10.00 Overcast FEW015 OVC023 68 62.1 81% 29.85 1010.6
30 18:56 Vrbl 7 10.00 Overcast OVC025 69.1 63 73 66.9 81% 29.86 1011.2
30 17:56 E 7 10.00 Overcast OVC017 69.1 63 81% 29.89 1012.2
30 16:56 E 9 10.00 Mostly Cloudy BKN019 71.1 64 79% 29.89 1012.0
30 15:56 Vrbl 7 10.00 Overcast OVC021 71.1 64 79% 29.91 1012.7
30 14:56 E 8 10.00 Overcast OVC017 70 63 79% 29.92 1013.0
30 13:56 SE 8 10.00 Overcast OVC015 68 62.1 81% 29.92 1013.0
30 12:56 Vrbl 6 10.00 Overcast OVC009 66.9 63 66.9 63 87% 29.92 1013.1 0.01
30 11:56 Vrbl 7 10.00 Overcast OVC005 64.9 63 93% 29.92 1013.1
30 10:56 Vrbl 5 10.00 Overcast OVC005 64 63 96% 29.93 1013.6
30 09:56 E 6 10.00 Light Rain OVC005 64 62.1 93% 29.93 1013.5 0.01 0.01
30 08:56 SE 6 10.00 Light Rain OVC005 63 62.1 97% 29.94 1013.6
30 07:56 E 7 8.00 Light Rain OVC005 63 62.1 97% 29.91 1012.6
30 06:56 Vrbl 5 10.00 Overcast OVC005 63 62.1 64.9 63 97% 29.93 1013.4
30 05:56 Calm 10.00 Overcast OVC005 63 62.1 97% 29.91 1012.8
30 04:56 Vrbl 6 10.00 Overcast OVC005 64 62.1 93% 29.92 1012.9
30 03:56 E 5 10.00 Overcast OVC005 64 62.1 93% 29.91 1012.4
30 02:56 E 3 10.00 Overcast OVC005 64 62.1 93% 29.91 1012.6
30 01:56 Calm 10.00 Overcast OVC005 64 63 96% 29.91 1012.7
30 00:56 SE 6 10.00 Overcast OVC007 64 63 71.1 64 96% 29.92 1012.8
29 23:56 Calm 10.00 Overcast OVC007 64.9 63 93% 29.94 1013.6
29 22:56 SE 5 10.00 Mostly Cloudy BKN007 64.9 63 93% 29.94 1013.7
29 21:56 Calm 10.00 Fair CLR 64.9 63 93% 29.93 1013.5
29 20:56 SE 5 10.00 A Few Clouds FEW033 66.9 64 91% 29.91 1012.7
29 19:56 SE 5 10.00 Fair CLR 69.1 64 84% 29.91 1012.6
29 18:56 SE 6 10.00 Overcast FEW028 OVC038 71.1 64 75.9 71.1 79% 29.91 1012.7
29 17:56 SE 5 10.00 Partly Cloudy FEW025 SCT033 72 64 76% 29.91 1012.6
29 16:56 SE 6 10.00 Overcast FEW018 OVC039 73 64.9 76% 29.9 1012.3
29 15:56 Vrbl 5 10.00 Overcast SCT021 BKN028 OVC034 73 64.9 76% 29.9 1012.3
Date Time (cdt) Wind (mph) Vis. (mi.) Weather Sky Cond. Air Dwpt Max. Min. Relative Humidity Wind Chill (°F) Heat Index (°F) altimeter (in) sea level (mb) 1 hr 3 hr 6 hr
6 hour
Temperature (ºF) Pressure Precipitation (in)